[TLELIST] Archives

 

Current TLEs

February 27th 2007 PDT

HST 1 20580U 90037B 07057.70820348 .00000379 00000-0 16590-4 0 8167 2 20580 028.4660 190.5081 0003504 005.1294 354.9329 15.00195971723353 ISS (ZARYA) 1 25544U 98067A 07058.27448036 .00017792 00000-0 10159-3 0 7234 2 25544 051.6348 311.9886 0020557 255.4745 204.1769 15.78713013473410 CXO 1 25867U 99040B 07059.25000000 .00000155 00000-0 00000+0 0 405 2 25867 061.2518 091.6174 6081939 286.0170 359.1962 00.37800712 1847 ____________________________________________________________________ These 2-Line ...Continue Reading

Current TLEs

February 26th 2007 PDT

HST 1 20580U 90037B 07055.77891368 +.00000373 +00000-0 +16123-4 0 08326 2 20580 028.4661 203.0928 0003551 344.9457 015.1023 15.00195097723065 ISS (ZARYA) 1 25544U 98067A 07057.32595105 .00017382 00000-0 99506-4 0 7171 2 25544 051.6350 316.8950 0020577 251.8990 213.3151 15.78676400473261 CXO 1 25867U 99040B 07059.25000000 .00000155 00000-0 00000+0 0 405 2 25867 061.2518 091.6174 6081939 286.0170 359.1962 00.37800712 1847 ____________________________________________________________________ These 2-Line ...Continue Reading

Current TLEs

February 25th 2007 PDT

HST 1 20580U 90037B 07054.78100414 .00000376 00000-0 16393-4 0 8143 2 20580 028.4661 209.6003 0003578 333.3457 026.6947 15.00194697722912 ISS (ZARYA) 1 25544U 98067A 07056.19626672 .00017066 00000-0 97961-4 0 7115 2 25544 051.6359 322.7367 0020557 247.6103 273.0752 15.78635009473085 CXO 1 25867U 99040B 07056.62500000 .00000143 00000-0 00000+0 0 393 2 25867 061.2386 091.6677 6079876 286.0934 001.7712 00.37801516 1838 ____________________________________________________________________ These 2-Line ...Continue Reading

Current TLEs

February 24th 2007 PDT

HST 1 20580U 90037B 07054.78100414 .00000376 00000-0 16393-4 0 8143 2 20580 028.4661 209.6003 0003578 333.3457 026.6947 15.00194697722912 ISS (ZARYA) 1 25544U 98067A 07055.36364705 .00017436 00000-0 10011-3 0 7064 2 25544 051.6349 327.0441 0020626 244.6457 221.0292 15.78605834472951 CXO 1 25867U 99040B 07053.95833333 .00000223 00000-0 00000+0 0 382 2 25867 061.2165 091.7387 6079473 286.1355 358.7197 00.37805748 1825 ____________________________________________________________________ These 2-Line ...Continue Reading

Current TLEs

February 23rd 2007 PDT

HST 1 20580U 90037B 07053.71656698 .00000378 00000-0 16547-4 0 8137 2 20580 028.4661 216.5401 0003598 321.4786 038.5546 15.00194259722759 ISS (ZARYA) 1 25544U 98067A 07054.34991015 .00073756 00000-0 40784-3 0 6999 2 25544 051.6358 332.2865 0020999 239.8336 220.9830 15.78612100472796 CXO 1 25867U 99040B 07053.95833333 .00000223 00000-0 00000+0 0 382 2 25867 061.2165 091.7387 6079473 286.1355 358.7197 00.37805748 1825 ____________________________________________________________________ These 2-Line ...Continue Reading

Current TLEs

February 22nd 2007 PDT

HST 1 20580U 90037B 07052.51907827 .00000413 00000-0 19223-4 0 8120 2 20580 028.4676 224.3703 0003659 306.9476 053.0785 15.00194134722578 ISS (ZARYA) 1 25544U 98067A 07053.15405949 .00019322 00000-0 11054-3 0 6901 2 25544 051.6366 338.4652 0020875 234.2117 266.1935 15.78589151472603 CXO 1 25867U 99040B 07053.95833333 .00000223 00000-0 00000+0 0 382 2 25867 061.2165 091.7387 6079473 286.1355 358.7197 00.37805748 1825 ____________________________________________________________________ These 2-Line ...Continue Reading

Current TLEs

February 21st 2007 PDT

HST 1 20580U 90037B 07051.85380500 +.00000405 +00000-0 +18643-4 0 08181 2 20580 028.4676 228.7069 0003662 300.0825 059.9400 15.00193749722477 ISS (ZARYA) 1 25544U 98067A 07052.38752512 .00017775 00000-0 10219-3 0 6863 2 25544 051.6367 342.4315 0020759 232.1106 229.2346 15.78556522472489 CXO 1 25867U 99040B 07051.29166667 .00000323 00000-0 00000+0 0 376 2 25867 061.1920 091.8191 6078035 286.1385 355.7625 00.37809293 1814 ____________________________________________________________________ These 2-Line ...Continue Reading

Current TLEs

February 20th 2007 PDT

HST 1 20580U 90037B 07050.85589509 .00000417 00000-0 19547-4 0 8110 2 20580 028.4676 235.2119 0003651 289.8879 070.1319 15.00193338722329 ISS (ZARYA) 1 25544U 98067A 07051.43888007 .00021612 00000-0 12345-3 0 6796 2 25544 051.6363 347.3330 0021018 228.0593 238.7427 15.78528405472337 CXO 1 25867U 99040B 07051.29166667 .00000323 00000-0 00000+0 0 376 2 25867 061.1920 091.8191 6078035 286.1385 355.7625 00.37809293 1814 ____________________________________________________________________ These 2-Line ...Continue Reading

Current TLEs

February 19th 2007 PDT

HST 1 20580U 90037B 07048.92660235 +.00000426 +00000-0 +20278-4 0 08259 2 20580 028.4679 247.7902 0003696 269.6250 090.3915 15.00192441722036 ISS (ZARYA) 1 25544U 98067A 07050.42516324 .00021731 00000-0 12434-3 0 6739 2 25544 051.6367 352.5745 0021130 223.7355 238.5999 15.78484013472172 CXO 1 25867U 99040B 07051.29166667 .00000323 00000-0 00000+0 0 376 2 25867 061.1920 091.8191 6078035 286.1385 355.7625 00.37809293 1814 ____________________________________________________________________ These 2-Line ...Continue Reading

Current TLEs

February 18th 2007 PDT

HST 1 20580U 90037B 07048.92660235 .00000426 00000-0 20278-4 0 8103 2 20580 028.4679 247.7902 0003696 269.6250 090.3915 15.00192441722036 ISS (ZARYA) 1 25544U 98067A 07049.35589694 .00021447 00000-0 12303-3 0 6660 2 25544 051.6362 358.1021 0021152 220.0170 282.1428 15.78435376472007 CXO 1 25867U 99040B 07048.66666667 .00000355 00000-0 00000+0 0 362 2 25867 061.1694 091.8911 6073715 286.1336 358.4930 00.37807543 1802 ____________________________________________________________________ These 2-Line ...Continue Reading
  • This mailing list is a public mailing list - anyone may join or leave, at any time.
  • This mailing list is announce-only.

International Space Station (ISS) / Hubble Space Telescope (HST) / Chandra X-Ray Observatory Orbital Data via EMAIL

Privacy Policy:

Private list